Regional Weather Roundup
Issued by NWS

Home | Current Version | Previous Version | Text Only | Print | Product List | Glossary Off
Versions: 1 2 3 4 5 6 7 8 9 10 11 12 13 14 15 16 17 18 19 20 21 22 23 24 25 26 27 28 29 30 31 32 33 34 35 36 37 38 39 40 41 42 43 44 45 46 47 48 49 50

000
ASUS43 KOAX 011402
RWRNE

WEATHER ROUNDUP FOR NEBRASKA
NATIONAL WEATHER SERVICE OMAHA NE
900 AM CDT SAT AUG 01 2015

NOTES: SATELLITE DATA IS BEING USED TO AUGMENT CLOUD COVER ABOVE
       12000 FEET.
       "FAIR" INDICATES FEW OR NO CLOUDS BELOW 12,000 FEET WITH NO
       SIGNIFICANT WEATHER AND/OR OBSTRUCTIONS TO VISIBILITY.

  * THESE STATIONS DO NOT REPORT WEATHER SUCH AS RAIN...SNOW OR FOG.

NEZ001>004-019>022-054>056-011500-
NEBRASKA PANHANDLE

CITY           SKY/WX    TMP DP  RH WIND       PRES   REMARKS
SCOTTSBLUFF    SUNNY     74  58  57 CALM      30.10R
ALLIANCE       SUNNY     69  60  73 CALM      30.08F
CHADRON        SUNNY     70  55  59 E6        30.05F
KIMBALL        SUNNY     74  60  61 SW13      30.14F
SIDNEY         SUNNY     75  62  64 SW18      30.13F
$$

NEZ057>060-069>072-079>082-011500-
SOUTHWEST NEBRASKA

CITY           SKY/WX    TMP DP  RH WIND       PRES   REMARKS
NORTH PLATTE   SUNNY     71  60  68 SE16      30.13R
IMPERIAL       SUNNY     73  60  63 SW6       30.11F
LEXINGTON      MOSUNNY   70  62  75 E21G29    30.16R
MCCOOK         SUNNY     76  62  62 SW10      30.09S
$$

NEZ005>010-023>029-035>040-094-011500-
NORTH CENTRAL NEBRASKA

CITY           SKY/WX    TMP DP  RH WIND       PRES   REMARKS
VALENTINE      LGT RAIN  66  59  78 SE12      30.09R
BROKEN BOW     MOSUNNY   71  57  61 SE18G24   30.15R
O`NEILL        CLOUDY    69  59  71 S14       30.06F
ORD            CLOUDY    64  59  83 SE12      30.13R
$$

NEZ041-046>049-061>064-073>077-083>087-011500-
SOUTH CENTRAL NEBRASKA

CITY           SKY/WX    TMP DP  RH WIND       PRES   REMARKS
GRAND ISLAND   CLOUDY    63  60  90 NE14      30.17F
AURORA         LGT RAIN  65  64  96 N16       30.15F
HASTINGS       PTSUNNY   68  59  73 NE9G20    30.15F
KEARNEY *      MOSUNNY   70  57  64 NE17      30.15F
$$

NEZ011>018-030>034-042>045-011500-
NORTHEAST NEBRASKA

CITY           SKY/WX    TMP DP  RH WIND       PRES   REMARKS
NORFOLK        CLOUDY    71  61  70 SW16      30.05R
BLAIR          CLOUDY    67  62  83 W7        30.08S
COLUMBUS *     CLOUDY    66  59  77 SW9       30.14F
TEKAMAH        CLOUDY    67  64  90 S6        30.05S
$$

NEZ050>053-065>068-078-088>093-011500-
SOUTHEAST NEBRASKA

CITY           SKY/WX    TMP DP  RH WIND       PRES   REMARKS
LINCOLN        CLOUDY    74  62  66 NW18G26   30.10R
OMAHA EPPLEY   CLOUDY    69  67  93 CALM      30.08R
FALLS CITY     MOSUNNY   75  71  87 SW5       30.05S
$$

NEZ044-045-051>053-067-011500-
OMAHA AREA

CITY           SKY/WX    TMP DP  RH WIND       PRES   REMARKS
OMAHA EPPLEY   CLOUDY    69  67  93 CALM      30.08R
BLAIR          CLOUDY    67  62  83 W7        30.08S
$$



USA.gov is the U.S. government's official web portal to all federal, state and local government web resources and services.